Weather History for EGPN - January, 2014

Change the Weather History Date:

Sunday, January 5, 2014

  Actual Average Record
Temperature  
Mean Temperature 38 °F -  
Max Temperature 46 °F 42 °F 50 °F (2007)
Min Temperature 33 °F 35 °F 30 °F (2003)
Degree Days  
Heating Degree Days 26    
Moisture  
Dew Point 39 °F    
Average Humidity 93    
Maximum Humidity 100    
Minimum Humidity 87    
Precipitation  
Precipitation 0.00 in - - ()
Sea Level Pressure  
Sea Level Pressure 29.11 in    
Wind  
Wind Speed 7 mph ()    
Max Wind Speed 22 mph    
Max Gust Speed -    
Visibility 6.2 miles    
Events Rain    
Averages and records for this station are not official NWS values.
T = Trace of Precipitation, MM = Missing Value Source: Averaged Metar Reports

Daily Weather History Graph

Daily Weather History Graph

Search for Another Location

Airport or City:

Trip Planner

Search our weather history database for the weather conditions in past years. The results will help you decide how hot, cold, wet, or windy it might be!

Date:

Astronomy

Jan. 05, 2014 Rise Set
Actual Time 8:44 AM GMT 3:50 PM GMT
Civil Twilight 7:57 AM GMT 4:37 PM GMT
Nautical Twilight 7:08 AM GMT 5:26 PM GMT
Astronomical Twilight 6:22 AM GMT 6:12 PM GMT
Moon 10:18 AM GMT (1/5) 10:07 PM GMT (1/5)
Length of Visible Light 8h 40m
Length of Day
7h 05m
Waxing Crescent, 22% of the Moon is Illuminated
Jan 5
Waxing Crescent
Jan 8
First Quarter
Jan 16
Full
Jan 24
Last Quarter
Jan 30
New

Hourly Weather History & Observations

Time (GMT) Temp. Windchill Dew Point Humidity Pressure Visibility Wind Dir Wind Speed Gust Speed Precip Events Conditions
9:20 AM 33.8 °F - 33.8 °F 100% 29.33 in 6.2 mi Calm Calm - N/A   Partly Cloudy
9:50 AM 35.6 °F - 35.6 °F 100% 29.33 in 6.2 mi Calm Calm - N/A   Partly Cloudy
10:20 AM 37.4 °F - 37.4 °F 100% 29.30 in 6.2 mi North 2.3 mph - N/A   Scattered Clouds
10:50 AM 37.4 °F - 37.4 °F 100% 29.30 in 6.2 mi Calm Calm - N/A Rain Light Rain
11:20 AM 37.4 °F 34.9 °F 35.6 °F 93% 29.30 in 6.2 mi ENE 3.5 mph - N/A Rain Light Rain
11:50 AM 37.4 °F 32.8 °F 35.6 °F 93% 29.30 in 6.2 mi East 5.8 mph - N/A   Mostly Cloudy
12:20 PM 37.4 °F 32.1 °F 37.4 °F 100% 29.27 in 6.2 mi East 6.9 mph - N/A   Mostly Cloudy
12:50 PM 37.4 °F 31.4 °F 37.4 °F 100% 29.24 in 6.2 mi East 8.1 mph - N/A   Mostly Cloudy
1:20 PM 39.2 °F 33.0 °F 37.4 °F 93% 29.24 in 6.2 mi East 9.2 mph - N/A   Mostly Cloudy
1:50 PM 41.0 °F 35.2 °F 39.2 °F 93% 29.21 in 6.2 mi East 9.2 mph - N/A   Mostly Cloudy
2:20 PM 41.0 °F 35.8 °F 39.2 °F 93% 29.21 in 6.2 mi East 8.1 mph - N/A   Mostly Cloudy
2:50 PM 42.8 °F 36.2 °F 39.2 °F 87% 29.18 in 6.2 mi SE 12.7 mph - N/A   Scattered Clouds
3:20 PM 42.8 °F 35.8 °F 39.2 °F 87% 29.18 in 6.2 mi ESE 13.8 mph - N/A   Scattered Clouds
3:50 PM 42.8 °F 35.4 °F 39.2 °F 87% 29.15 in 6.2 mi ESE 15.0 mph - N/A Rain Light Rain
4:20 PM 42.8 °F 34.8 °F 39.2 °F 87% 29.15 in 6.2 mi ESE 17.3 mph - N/A Rain Light Rain
4:50 PM 42.8 °F 33.8 °F 39.2 °F 87% 29.09 in 6.2 mi ESE 21.9 mph - N/A Rain Light Rain
5:20 PM 42.8 °F 35.1 °F 39.2 °F 87% 29.06 in 6.2 mi East 16.1 mph - N/A Rain Light Rain
5:50 PM 42.8 °F 36.6 °F 39.2 °F 87% 29.03 in 6.2 mi East 11.5 mph - N/A Rain Light Rain
6:20 PM 42.8 °F 34.0 °F 39.2 °F 87% 29.00 in 6.2 mi ESE 20.7 mph - N/A   Mostly Cloudy
6:50 PM 42.8 °F 35.8 °F 39.2 °F 87% 28.97 in 6.2 mi East 13.8 mph - N/A   Mostly Cloudy
7:20 PM 42.8 °F 37.0 °F 41.0 °F 93% 28.94 in 6.2 mi ENE 10.4 mph - N/A   Mostly Cloudy
7:50 PM 42.8 °F 35.4 °F 41.0 °F 93% 28.94 in 6.2 mi ESE 15.0 mph - N/A Rain Rain
8:20 PM 42.8 °F 35.8 °F 41.0 °F 93% 28.88 in 6.2 mi ESE 13.8 mph - N/A   Mostly Cloudy
8:50 PM 42.8 °F 35.1 °F 42.8 °F 100% 28.85 in 6.2 mi ESE 16.1 mph - N/A   Scattered Clouds
9:20 PM 44.6 °F 38.1 °F 42.8 °F 93% 28.82 in 6.2 mi ESE 13.8 mph - N/A Rain Rain
9:50 PM 44.6 °F 38.1 °F 44.6 °F 100% 28.82 in 6.2 mi SSE 13.8 mph - N/A Rain Rain
10:20 PM 46.4 °F 39.2 °F 44.6 °F 93% 28.82 in 6.2 mi South 18.4 mph - N/A Rain Light Rain